{"data":{"norad_id":58393,"intl_designator":"2023-178V","name":"STARLINK-30939","alt_names":[],"object_type":"PAYLOAD","status":"ACTIVE","operator":null,"country":"US","launch_date":"2023-11-20","launch_site_code":"AFWTR","launch_vehicle":null,"mission":null,"orbit_class":"UNKNOWN","rcs_meters":null,"size_class":null,"mass_kg":null,"dimensions":null,"purposes":["comms"],"wikipedia_slug":null,"has_3d_model":false,"image_url":null,"decayed_at":null,"tle_current":{"epoch":"2026-05-24T21:58:39.693216Z","epoch_age_seconds":82043,"freshness":"FRESH","line1":"1 58393U 23178V   26144.91573719  .00001068  00000+0  42743-4 0  9996","line2":"2 58393  53.1620   6.1823 0001185 102.9293 257.1842 15.34390130141440","mean_motion":15.3439013,"eccentricity":0.0001185,"inclination_deg":53.162,"raan_deg":6.1823,"arg_perigee_deg":102.9293,"mean_anomaly_deg":257.1842,"bstar":4.2743e-5,"rev_number":14144,"period_min":93.848361759209,"perigee_km":461.9219330396,"apogee_km":463.54321912913,"semimajor_km":6840.8695760844,"source":"CELESTRAK","updated_at":"2026-05-25T13:38:18.615683Z"}}}